CYGNUS OA-9 (43474 NORAD) Tracking and Keplerian Element Data

This shows tracking and keplerian element data for the satellite.

Feedback or suggestion? Click here.




ElementValue
Catalog43474
NameCYGNUS OA-9
Epoch Orbit1087
Epoch Day211.47198009
Epoch Year2018
RAAN165.6485
Inclination51.643
Eccentricity0.0021068
Argument of Perigee270.4372
Mean Anonmoly190.6361
Mean Motion15.57287845
Decay Rate8.695E-05
L11 43474U 18046A 18211.47198009 .00008695 00000-0 12249-3 0 9991
L22 43474 51.6430 165.6485 0021068 270.4372 190.6361 15.57287845 10874

Live tracking and technical data element details for CYGNUS OA-9 (NORAD 43474). CYGNUS OA-9 can be tracked NOW for your location showing map with azimuth and elevation plus other details from your city location.

Track the satellite on the map from your city or location and see movement details for azimuth, elevation, latitude, longitude, range, height, and movement on the map or in text.







IsCatalogInMostPopularTable: catalog: 43474, numindb: 47
Update: records affected: 1



GetName: 43474 CYGNUS OA-9

Hit Count: updated at: Tue, 20 Nov 2018 07:34:27 GMT